TimeEDT,TemperatureF,Dew PointF,Humidity,Sea Level PressureIn,VisibilityMPH,Wind Direction,Wind SpeedMPH,Gust SpeedMPH,PrecipitationIn,Events,Conditions,WindDirDegrees,DateUTC
12:15 AM,69.4,69.1,99,30.23,10.0,Calm,Calm,-,N/A,,Overcast,0,2013-07-09 04:15:00
12:35 AM,69.6,69.3,99,30.24,10.0,Calm,Calm,-,N/A,,Overcast,0,2013-07-09 04:35:00
12:55 AM,69.8,69.4,99,30.23,10.0,Calm,Calm,-,N/A,,Overcast,0,2013-07-09 04:55:00
1:15 AM,69.4,69.3,99,30.23,7.0,Calm,Calm,-,N/A,,Overcast,0,2013-07-09 05:15:00
1:35 AM,69.8,69.4,99,30.22,7.0,Calm,Calm,-,N/A,,Overcast,0,2013-07-09 05:35:00
1:55 AM,69.8,69.4,99,30.22,7.0,Calm,Calm,-,N/A,,Overcast,0,2013-07-09 05:55:00
2:15 AM,69.4,69.3,99,30.22,7.0,Calm,Calm,-,N/A,,Overcast,0,2013-07-09 06:15:00
2:35 AM,69.8,69.4,99,30.22,7.0,Calm,Calm,-,N/A,,Overcast,0,2013-07-09 06:35:00
2:55 AM,69.8,69.4,99,30.21,10.0,Calm,Calm,-,N/A,,Overcast,0,2013-07-09 06:55:00
3:15 AM,69.4,69.3,99,30.20,10.0,Calm,Calm,-,N/A,,Overcast,0,2013-07-09 07:15:00
3:35 AM,68.9,68.9,100,30.19,5.0,Calm,Calm,-,N/A,,Mostly Cloudy,0,2013-07-09 07:35:00
3:55 AM,68.5,68.5,100,30.20,4.0,Calm,Calm,-,N/A,,Mostly Cloudy,0,2013-07-09 07:55:00
4:15 AM,68.5,68.4,99,30.20,10.0,Calm,Calm,-,N/A,,Overcast,0,2013-07-09 08:15:00
4:35 AM,68.0,67.6,99,30.21,10.0,Calm,Calm,-,N/A,,Mostly Cloudy,0,2013-07-09 08:35:00
4:55 AM,68.0,67.6,99,30.21,10.0,Calm,Calm,-,N/A,,Mostly Cloudy,0,2013-07-09 08:55:00
5:15 AM,68.0,68.0,100,30.21,0.5,Calm,Calm,-,N/A,Fog,Fog,0,2013-07-09 09:15:00
5:35 AM,68.0,68.0,100,30.21,0.2,Calm,Calm,-,N/A,Fog,Fog,0,2013-07-09 09:35:00
5:55 AM,68.0,68.0,100,30.20,0.8,Calm,Calm,-,N/A,,Overcast,0,2013-07-09 09:55:00
6:15 AM,68.0,68.0,100,30.20,1.5,Calm,Calm,-,N/A,,Overcast,0,2013-07-09 10:15:00
6:35 AM,67.6,67.6,100,30.20,10.0,Calm,Calm,-,N/A,,Overcast,0,2013-07-09 10:35:00
6:55 AM,67.5,67.5,100,30.20,3.0,Calm,Calm,-,N/A,,Overcast,0,2013-07-09 10:55:00
7:15 AM,67.3,67.3,100,30.21,0.5,Calm,Calm,-,N/A,Fog,Fog,0,2013-07-09 11:15:00
7:35 AM,67.5,67.5,100,30.21,0.2,Calm,Calm,-,N/A,Fog,Fog,0,2013-07-09 11:35:00
7:55 AM,68.0,68.0,100,30.22,2.0,Calm,Calm,-,N/A,,Overcast,0,2013-07-09 11:55:00
8:15 AM,68.0,68.0,100,30.22,7.0,Calm,Calm,-,N/A,,Overcast,0,2013-07-09 12:15:00
8:35 AM,69.3,68.5,98,30.23,10.0,Calm,Calm,-,N/A,,Overcast,0,2013-07-09 12:35:00
8:55 AM,70.3,68.7,95,30.24,10.0,Calm,Calm,-,N/A,,Overcast,0,2013-07-09 12:55:00
9:15 AM,71.2,69.3,93,30.24,10.0,Calm,Calm,-,N/A,,Overcast,0,2013-07-09 13:15:00
9:35 AM,73.0,70.2,91,30.24,10.0,South,3.5,-,N/A,,Mostly Cloudy,190,2013-07-09 13:35:00
9:55 AM,74.1,70.2,87,30.23,10.0,Calm,Calm,-,N/A,,Scattered Clouds,0,2013-07-09 13:55:00
10:15 AM,74.8,70.0,85,30.22,10.0,Calm,Calm,-,N/A,,Scattered Clouds,0,2013-07-09 14:15:00
10:35 AM,76.1,70.7,83,30.22,10.0,Calm,Calm,-,N/A,,Scattered Clouds,0,2013-07-09 14:35:00
10:55 AM,77.2,69.6,77,30.22,10.0,Calm,Calm,-,N/A,,Clear,0,2013-07-09 14:55:00
11:15 AM,79.7,71.1,75,30.22,10.0,Calm,Calm,-,N/A,,Clear,0,2013-07-09 15:15:00
11:35 AM,79.7,70.2,73,30.22,10.0,Calm,Calm,-,N/A,,Clear,0,2013-07-09 15:35:00
11:55 AM,80.8,70.5,71,30.22,10.0,Calm,Calm,-,N/A,,Clear,0,2013-07-09 15:55:00
12:15 PM,81.5,70.3,69,30.21,10.0,Calm,Calm,-,N/A,,Clear,0,2013-07-09 16:15:00
12:35 PM,80.6,69.8,70,30.21,10.0,Calm,Calm,-,N/A,,Clear,0,2013-07-09 16:35:00
12:55 PM,83.1,70.5,66,30.21,10.0,West,5.8,-,N/A,,Scattered Clouds,280,2013-07-09 16:55:00
1:15 PM,82.4,72.0,71,30.20,10.0,West,9.2,-,N/A,,Mostly Cloudy,280,2013-07-09 17:15:00
1:35 PM,80.6,71.2,73,30.20,10.0,West,8.1,-,N/A,,Overcast,280,2013-07-09 17:35:00
1:55 PM,81.1,71.2,72,30.19,10.0,WSW,5.8,-,N/A,,Mostly Cloudy,250,2013-07-09 17:55:00
2:15 PM,84.9,71.1,63,30.18,10.0,WSW,8.1,-,N/A,,Scattered Clouds,240,2013-07-09 18:15:00
2:35 PM,83.1,71.4,68,30.18,10.0,WSW,6.9,-,N/A,,Mostly Cloudy,250,2013-07-09 18:35:00
2:55 PM,83.5,71.4,67,30.17,10.0,WSW,4.6,-,N/A,,Overcast,240,2013-07-09 18:55:00
3:15 PM,85.3,70.9,62,30.16,10.0,WSW,5.8,-,N/A,,Scattered Clouds,240,2013-07-09 19:15:00
3:35 PM,85.1,71.2,63,30.16,10.0,ENE,6.9,-,N/A,,Mostly Cloudy,70,2013-07-09 19:35:00
3:55 PM,82.8,72.9,72,30.16,10.0,ENE,5.8,-,N/A,,Mostly Cloudy,70,2013-07-09 19:55:00
4:15 PM,83.3,70.7,66,30.14,10.0,East,6.9,-,N/A,,Scattered Clouds,80,2013-07-09 20:15:00
4:35 PM,85.1,72.7,66,30.13,10.0,East,3.5,-,N/A,,Clear,100,2013-07-09 20:35:00
4:55 PM,85.1,72.1,65,30.13,10.0,Calm,Calm,-,N/A,,Clear,0,2013-07-09 20:55:00
5:15 PM,86.2,70.3,59,30.12,10.0,West,4.6,-,N/A,,Clear,260,2013-07-09 21:15:00
5:35 PM,85.8,70.7,60,30.12,10.0,SW,5.8,-,N/A,,Clear,230,2013-07-09 21:35:00
5:55 PM,83.3,70.2,64,30.12,10.0,West,4.6,-,N/A,,Scattered Clouds,260,2013-07-09 21:55:00
6:15 PM,78.6,72.1,80,30.12,10.0,NE,5.8,-,N/A,Rain,Light Rain,50,2013-07-09 22:15:00
6:35 PM,77.2,72.9,86,30.14,10.0,ENE,8.1,-,N/A,Rain,Light Rain,70,2013-07-09 22:35:00
6:55 PM,75.4,70.5,85,30.14,10.0,NNE,6.9,-,N/A,Rain,Light Rain,20,2013-07-09 22:55:00
7:15 PM,74.7,70.0,85,30.13,10.0,ENE,5.8,-,N/A,,Scattered Clouds,60,2013-07-09 23:15:00
7:35 PM,74.3,69.3,84,30.14,10.0,Calm,Calm,-,N/A,,Mostly Cloudy,0,2013-07-09 23:35:00
7:55 PM,73.6,69.8,88,30.16,10.0,ESE,3.5,-,N/A,,Overcast,120,2013-07-09 23:55:00
8:15 PM,73.2,69.4,88,30.16,10.0,Calm,Calm,-,N/A,,Overcast,0,2013-07-10 00:15:00
8:35 PM,73.2,70.5,91,30.17,10.0,Calm,Calm,-,N/A,Rain,Light Rain,0,2013-07-10 00:35:00
8:55 PM,72.3,70.9,95,30.18,10.0,Calm,Calm,-,N/A,,Drizzle,0,2013-07-10 00:55:00
9:15 PM,72.0,70.7,96,30.18,7.0,Calm,Calm,-,N/A,Rain,Rain,0,2013-07-10 01:15:00
9:35 PM,72.0,71.2,98,30.17,10.0,Calm,Calm,-,N/A,Rain,Rain,0,2013-07-10 01:35:00
9:55 PM,71.6,70.7,97,30.17,10.0,NE,3.5,-,N/A,Rain,Light Rain,50,2013-07-10 01:55:00
10:15 PM,71.6,70.7,97,30.17,10.0,Calm,Calm,-,N/A,Rain,Light Rain,0,2013-07-10 02:15:00
10:35 PM,71.4,70.7,98,30.17,10.0,Calm,Calm,-,N/A,,Light Drizzle,0,2013-07-10 02:35:00
10:55 PM,71.1,70.5,98,30.17,10.0,Calm,Calm,-,N/A,,Clear,0,2013-07-10 02:55:00
11:15 PM,70.7,70.2,98,30.16,10.0,Calm,Calm,-,N/A,,Clear,0,2013-07-10 03:15:00
11:35 PM,70.3,69.8,98,30.17,10.0,Calm,Calm,-,N/A,,Scattered Clouds,0,2013-07-10 03:35:00
11:55 PM,69.8,69.4,99,30.18,10.0,Calm,Calm,-,N/A,,Scattered Clouds,0,2013-07-10 03:55:00